When you browse on this site, cookies collect data to enhance your experience and personalize the content and advertising you see.
Visit our Privacy Policy to learn more. By continuing to use the site, you agree to this use of cookies and data.
  • In Hungary
  • List of Countries
  • For 7 days
  • Water Temperature
  • Satellite Maps
  • Weather Map
  • News
  • Weather Widgets
  • user-avatar
    Login

    Hourly Weather Novomirgorod

    Today, 21 January, Monday

    Time Temperature Precipitation Wind Pressure Humidity
    00:00 -5°C° 0.7 mm 2 mps 749 mmHg 97%
    01:00 -5°C° 0.7 mm 2 mps 748 mmHg 97%
    02:00 -2°C° 0.7 mm 1 mps 748 mmHg 97%
    03:00 -4°C° 0.6 mm 2 mps 748 mmHg 97%
    04:00 -5°C° 0.6 mm 2 mps 747 mmHg 97%
    05:00 -6°C° 0.6 mm 3 mps 747 mmHg 97%
    06:00 -7°C° 0.4 mm 4 mps 747 mmHg 96%
    07:00 -7°C° 0.4 mm 4 mps 747 mmHg 96%
    08:00 -7°C° 0.4 mm 5 mps 748 mmHg 95%
    09:00 -7°C° 0 mm 5 mps 748 mmHg 95%
    10:00 -7°C° 0 mm 5 mps 749 mmHg 94%
    11:00 -8°C° 0 mm 5 mps 749 mmHg 94%
    12:00 -8°C° 0 mm 5 mps 750 mmHg 94%
    13:00 -8°C° 0 mm 5 mps 750 mmHg 94%
    14:00 -8°C° 0 mm 5 mps 750 mmHg 94%
    15:00 -9°C° 0 mm 4 mps 751 mmHg 94%
    16:00 -9°C° 0 mm 4 mps 751 mmHg 94%
    17:00 -10°C° 0 mm 4 mps 752 mmHg 95%
    18:00 -10°C° 0 mm 4 mps 752 mmHg 95%
    19:00 -10°C° 0 mm 3 mps 753 mmHg 95%
    20:00 -10°C° 0 mm 3 mps 753 mmHg 95%
    21:00 -10°C° 0 mm 2 mps 753 mmHg 95%
    22:00 -10°C° 0 mm 2 mps 754 mmHg 95%
    23:00 -12°C° 0 mm 2 mps 754 mmHg 95%

    Tomorrow, 22 January, Tuesday

    Time Temperature Precipitation Wind Pressure Humidity
    00:00 -11°C° 0 mm 1 mps 754 mmHg 96%
    01:00 -12°C° 0 mm 1 mps 754 mmHg 97%
    02:00 -13°C° 0 mm 1 mps 755 mmHg 98%
    03:00 -14°C° 0 mm 1 mps 754 mmHg 99%
    04:00 -15°C° 0 mm 0 mps 754 mmHg 99%
    05:00 -16°C° 0 mm 0 mps 754 mmHg 99%
    06:00 -16°C° 0 mm 0 mps 754 mmHg 99%
    07:00 -16°C° 0 mm 0 mps 755 mmHg 99%
    08:00 -16°C° 0 mm 1 mps 755 mmHg 99%
    09:00 -14°C° 0 mm 1 mps 755 mmHg 97%
    10:00 -13°C° 0 mm 1 mps 755 mmHg 95%
    11:00 -11°C° 0 mm 1 mps 755 mmHg 92%
    12:00 -10°C° 0 mm 1 mps 755 mmHg 92%
    13:00 -12°C° 0 mm 2 mps 754 mmHg 91%
    14:00 -10°C° 0 mm 2 mps 754 mmHg 90%
    15:00 -12°C° 0 mm 2 mps 754 mmHg 90%
    16:00 -13°C° 0 mm 2 mps 754 mmHg 90%
    17:00 -15°C° 0 mm 3 mps 753 mmHg 90%
    18:00 -15°C° 0 mm 3 mps 753 mmHg 90%
    19:00 -15°C° 0 mm 3 mps 753 mmHg 90%
    20:00 -15°C° 0 mm 3 mps 753 mmHg 90%
    21:00 -14°C° 0 mm 3 mps 752 mmHg 89%
    22:00 -15°C° 0 mm 4 mps 752 mmHg 89%
    23:00 -14°C° 0 mm 4 mps 752 mmHg 89%

    Day after tomorrow, 23 January, Wednesday

    Time Temperature Precipitation Wind Pressure Humidity
    00:00 -14°C° 0 mm 4 mps 752 mmHg 90%
    01:00 -12°C° 0 mm 4 mps 751 mmHg 90%
    02:00 -12°C° 0 mm 4 mps 751 mmHg 91%
    03:00 -12°C° 0.2 mm 5 mps 750 mmHg 92%
    04:00 -12°C° 0.2 mm 6 mps 749 mmHg 93%
    05:00 -11°C° 0.2 mm 6 mps 748 mmHg 94%
    06:00 -12°C° 0.5 mm 7 mps 748 mmHg 93%
    07:00 -11°C° 0.5 mm 7 mps 748 mmHg 93%
    08:00 -9°C° 0.5 mm 7 mps 747 mmHg 93%
    09:00 -10°C° 0.4 mm 8 mps 747 mmHg 93%
    10:00 -8°C° 0.4 mm 8 mps 746 mmHg 93%
    11:00 -7°C° 0.4 mm 8 mps 746 mmHg 93%
    12:00 -6°C° 0.4 mm 8 mps 745 mmHg 93%
    13:00 -6°C° 0.4 mm 8 mps 744 mmHg 92%
    14:00 -4°C° 0.4 mm 7 mps 743 mmHg 92%
    15:00 -3°C° 0.5 mm 7 mps 743 mmHg 93%
    16:00 -3°C° 0.5 mm 7 mps 742 mmHg 93%
    17:00 -2°C° 0.5 mm 6 mps 741 mmHg 93%
    18:00 -2°C° 1.1 mm 6 mps 741 mmHg 95%
    19:00 -1°C° 1.1 mm 5 mps 741 mmHg 97%
    20:00 -1°C° 1.1 mm 4 mps 740 mmHg 99%
    21:00 0°C° 1.3 mm 4 mps 740 mmHg 99%
    22:00 +1°C° 1.3 mm 3 mps 740 mmHg 99%
    23:00 +2°C° 1.3 mm 2 mps 740 mmHg 99%

    24 January, Thursday

    Time Temperature Precipitation Wind Pressure Humidity
    00:00 +2°C° 0.1 mm 2 mps 740 mmHg 99%
    01:00 +2°C° 0.1 mm 2 mps 740 mmHg 99%
    02:00 +1°C° 0.1 mm 2 mps 740 mmHg 99%
    03:00 -1°C° 0.1 mm 3 mps 741 mmHg 98%
    04:00 -3°C° 0.1 mm 4 mps 741 mmHg 97%
    05:00 -5°C° 0.1 mm 5 mps 742 mmHg 96%
    06:00 -6°C° 0 mm 5 mps 743 mmHg 96%
    07:00 -7°C° 0 mm 5 mps 744 mmHg 95%
    08:00 -8°C° 0 mm 5 mps 745 mmHg 95%
    09:00 -10°C° 0 mm 5 mps 746 mmHg 95%
    10:00 -10°C° 0 mm 5 mps 746 mmHg 95%
    11:00 -10°C° 0 mm 5 mps 747 mmHg 95%
    12:00 -10°C° 0 mm 5 mps 747 mmHg 95%
    13:00 -10°C° 0 mm 5 mps 747 mmHg 94%
    14:00 -10°C° 0 mm 5 mps 748 mmHg 94%
    15:00 -11°C° 0 mm 5 mps 748 mmHg 94%
    16:00 -11°C° 0 mm 5 mps 748 mmHg 94%
    17:00 -12°C° 0 mm 5 mps 749 mmHg 94%
    18:00 -12°C° 0 mm 5 mps 749 mmHg 94%
    19:00 -13°C° 0 mm 5 mps 749 mmHg 94%
    20:00 -13°C° 0 mm 5 mps 750 mmHg 94%
    21:00 -13°C° 0 mm 5 mps 750 mmHg 94%
    22:00 -14°C° 0 mm 4 mps 750 mmHg 94%
    23:00 -14°C° 0 mm 4 mps 750 mmHg 95%

    25 January, Friday

    Time Temperature Precipitation Wind Pressure Humidity
    00:00 -14°C° 0 mm 4 mps 750 mmHg 95%
    01:00 -14°C° 0 mm 4 mps 750 mmHg 95%
    02:00 -14°C° 0 mm 4 mps 750 mmHg 95%
    03:00 -14°C° 0 mm 4 mps 750 mmHg 95%
    04:00 -14°C° 0 mm 4 mps 750 mmHg 95%
    05:00 -14°C° 0 mm 4 mps 750 mmHg 95%
    06:00 -15°C° 0 mm 4 mps 750 mmHg 95%
    07:00 -15°C° 0 mm 4 mps 750 mmHg 95%
    08:00 -15°C° 0 mm 4 mps 750 mmHg 95%
    09:00 -14°C° 0 mm 4 mps 750 mmHg 95%
    10:00 -12°C° 0 mm 4 mps 750 mmHg 95%
    11:00 -11°C° 0 mm 4 mps 750 mmHg 95%
    12:00 -11°C° 0 mm 4 mps 750 mmHg 95%
    13:00 -11°C° 0 mm 4 mps 750 mmHg 95%
    14:00 -11°C° 0 mm 4 mps 749 mmHg 96%
    15:00 -11°C° 0 mm 4 mps 749 mmHg 96%
    16:00 -12°C° 0 mm 4 mps 749 mmHg 96%
    17:00 -12°C° 0 mm 4 mps 749 mmHg 95%
    18:00 -12°C° 0 mm 3 mps 749 mmHg 96%
    19:00 -12°C° 0 mm 3 mps 749 mmHg 96%
    20:00 -12°C° 0 mm 3 mps 749 mmHg 96%
    21:00 -12°C° 0 mm 3 mps 749 mmHg 96%
    22:00 -10°C° 0 mm 3 mps 749 mmHg 96%
    23:00 -9°C° 0 mm 2 mps 749 mmHg 96%

    26 January, Saturday

    Time Temperature Precipitation Wind Pressure Humidity
    00:00 -9°C° 0 mm 2 mps 748 mmHg 97%
    01:00 -10°C° 0 mm 2 mps 748 mmHg 97%
    02:00 -10°C° 0 mm 2 mps 748 mmHg 97%
    03:00 -10°C° 0 mm 2 mps 747 mmHg 97%
    04:00 -9°C° 0 mm 2 mps 747 mmHg 97%
    05:00 -9°C° 0 mm 2 mps 747 mmHg 97%
    06:00 -9°C° 0 mm 2 mps 747 mmHg 97%
    07:00 -9°C° 0 mm 2 mps 747 mmHg 97%
    08:00 -9°C° 0 mm 2 mps 747 mmHg 97%
    09:00 -8°C° 0 mm 2 mps 747 mmHg 96%
    10:00 -7°C° 0 mm 2 mps 747 mmHg 95%
    11:00 -4°C° 0 mm 1 mps 747 mmHg 95%
    12:00 -6°C° 0 mm 2 mps 746 mmHg 95%
    13:00 -5°C° 0 mm 2 mps 746 mmHg 95%
    14:00 -5°C° 0 mm 2 mps 745 mmHg 95%
    15:00 -5°C° 0 mm 2 mps 745 mmHg 95%
    16:00 -4°C° 0 mm 1 mps 745 mmHg 96%
    17:00 -4°C° 0 mm 1 mps 745 mmHg 97%
    18:00 -4°C° 0 mm 1 mps 745 mmHg 97%
    19:00 -4°C° 0 mm 1 mps 745 mmHg 97%
    20:00 -3°C° 0 mm 1 mps 745 mmHg 97%
    21:00 -3°C° 0 mm 1 mps 745 mmHg 96%
    22:00 -3°C° 0 mm 1 mps 745 mmHg 96%
    23:00 -4°C° 0 mm 0 mps 745 mmHg 96%
    Show more